Volver al catálogo

TESS

ActivoCienciaHEO
NORAD 43435·PAYLOAD·🇺🇸 United States

Lanzado Apr 18, 2018 desde Cape Canaveral Space Force Station

Loading…

Próximos Pases (próximas 24 horas)

TLE

ActualizadoSource: Space-Track

Época: Sep 21, 2026, 14:50 UTC

1 43435U 18038A   26264.61819158 -.00000879  00000-0  00000-0 0  9993
2 43435  56.2338  32.1610 4943752  64.1731  11.1423  0.07023037  1923

Sigue TESS en tiempo real con AllMySat

Download on the App Store